• In Hungary
  • List of Countries
  • For 7 days
  • Water Temperature
  • Satellite Maps
  • Weather Map
  • News
  • Weather Widgets
  • user-avatar
    Login

    Hourly Weather Warlow

    Today, 16 July, Monday

    Time Temperature Precipitation Wind Pressure Humidity
    00:00 +17°C° 0 mm 2 mps 740 mmHg 81%
    01:00 +17°C° 0 mm 2 mps 740 mmHg 81%
    02:00 +17°C° 0.1 mm 2 mps 740 mmHg 83%
    03:00 +16°C° 0.1 mm 2 mps 740 mmHg 85%
    04:00 +16°C° 0.1 mm 2 mps 740 mmHg 86%
    05:00 +17°C° 0 mm 2 mps 740 mmHg 83%
    06:00 +18°C° 0 mm 2 mps 740 mmHg 80%
    07:00 +20°C° 0 mm 3 mps 740 mmHg 76%
    08:00 +21°C° 0.2 mm 3 mps 740 mmHg 72%
    09:00 +23°C° 0.2 mm 4 mps 739 mmHg 67%
    10:00 +25°C° 0.2 mm 4 mps 739 mmHg 62%
    11:00 +26°C° 0.3 mm 4 mps 739 mmHg 61%
    12:00 +26°C° 0.3 mm 4 mps 739 mmHg 59%
    13:00 +26°C° 0 mm 5 mps 738 mmHg 60%
    14:00 +26°C° 1 mm 4 mps 738 mmHg 62%
    15:00 +25°C° 1 mm 4 mps 738 mmHg 65%
    16:00 +25°C° 1 mm 4 mps 738 mmHg 68%
    17:00 +24°C° 0.3 mm 3 mps 737 mmHg 73%
    18:00 +22°C° 0.3 mm 3 mps 737 mmHg 77%
    19:00 +21°C° 0.3 mm 2 mps 737 mmHg 82%
    20:00 +20°C° 0.2 mm 2 mps 737 mmHg 85%
    21:00 +19°C° 0.2 mm 2 mps 737 mmHg 87%
    22:00 +18°C° 0.2 mm 2 mps 737 mmHg 89%
    23:00 +18°C° 0 mm 2 mps 737 mmHg 91%

    Tomorrow, 17 July, Tuesday

    Time Temperature Precipitation Wind Pressure Humidity
    00:00 +18°C° 0 mm 2 mps 737 mmHg 92%
    01:00 +17°C° 0 mm 2 mps 737 mmHg 93%
    02:00 +17°C° 0.1 mm 2 mps 736 mmHg 94%
    03:00 +17°C° 0.1 mm 3 mps 736 mmHg 94%
    04:00 +17°C° 0.1 mm 3 mps 736 mmHg 95%
    05:00 +17°C° 1 mm 3 mps 736 mmHg 94%
    06:00 +18°C° 1 mm 4 mps 736 mmHg 93%
    07:00 +18°C° 1 mm 4 mps 736 mmHg 92%
    08:00 +19°C° 1.8 mm 4 mps 736 mmHg 91%
    09:00 +19°C° 1.8 mm 4 mps 736 mmHg 91%
    10:00 +19°C° 1.8 mm 5 mps 736 mmHg 90%
    11:00 +20°C° 0.8 mm 5 mps 736 mmHg 88%
    12:00 +20°C° 0.8 mm 5 mps 736 mmHg 85%
    13:00 +21°C° 0.8 mm 5 mps 736 mmHg 83%
    14:00 +21°C° 0.5 mm 5 mps 736 mmHg 82%
    15:00 +21°C° 0.5 mm 6 mps 736 mmHg 81%
    16:00 +22°C° 0.5 mm 6 mps 736 mmHg 81%
    17:00 +21°C° 0.4 mm 6 mps 736 mmHg 84%
    18:00 +20°C° 0.4 mm 5 mps 736 mmHg 87%
    19:00 +19°C° 0.4 mm 5 mps 736 mmHg 90%
    20:00 +19°C° 0.1 mm 5 mps 736 mmHg 92%
    21:00 +17°C° 0.1 mm 5 mps 736 mmHg 93%
    22:00 +17°C° 0.1 mm 5 mps 736 mmHg 95%
    23:00 +17°C° 0 mm 5 mps 736 mmHg 95%

    Day after tomorrow, 18 July, Wednesday

    Time Temperature Precipitation Wind Pressure Humidity
    00:00 +17°C° 0 mm 5 mps 736 mmHg 95%
    01:00 +18°C° 0 mm 4 mps 737 mmHg 95%
    02:00 +17°C° 0.1 mm 5 mps 737 mmHg 95%
    03:00 +17°C° 0.1 mm 5 mps 737 mmHg 95%
    04:00 +17°C° 0.1 mm 5 mps 736 mmHg 96%
    05:00 +17°C° 0.2 mm 5 mps 737 mmHg 95%
    06:00 +17°C° 0.2 mm 5 mps 737 mmHg 94%
    07:00 +19°C° 0.2 mm 5 mps 737 mmHg 94%
    08:00 +19°C° 0.6 mm 5 mps 737 mmHg 93%
    09:00 +19°C° 0.6 mm 5 mps 737 mmHg 93%
    10:00 +19°C° 0.6 mm 5 mps 738 mmHg 92%
    11:00 +20°C° 0.6 mm 5 mps 738 mmHg 89%
    12:00 +21°C° 0.6 mm 5 mps 738 mmHg 86%
    13:00 +22°C° 0.6 mm 5 mps 738 mmHg 82%
    14:00 +22°C° 0.6 mm 5 mps 738 mmHg 83%
    15:00 +22°C° 0.6 mm 5 mps 738 mmHg 83%
    16:00 +22°C° 0.6 mm 5 mps 738 mmHg 83%
    17:00 +22°C° 0.5 mm 5 mps 738 mmHg 85%
    18:00 +21°C° 0.5 mm 4 mps 738 mmHg 87%
    19:00 +21°C° 0.5 mm 4 mps 738 mmHg 89%
    20:00 +20°C° 0.1 mm 4 mps 739 mmHg 90%
    21:00 +20°C° 0.1 mm 4 mps 739 mmHg 91%
    22:00 +19°C° 0.1 mm 4 mps 739 mmHg 91%
    23:00 +19°C° 0.1 mm 4 mps 739 mmHg 92%

    19 July, Thursday

    Time Temperature Precipitation Wind Pressure Humidity
    00:00 +18°C° 0.1 mm 4 mps 739 mmHg 93%
    01:00 +18°C° 0.1 mm 4 mps 739 mmHg 93%
    02:00 +18°C° 0.1 mm 4 mps 739 mmHg 94%
    03:00 +18°C° 0.1 mm 4 mps 739 mmHg 95%
    04:00 +17°C° 0.1 mm 4 mps 739 mmHg 95%
    05:00 +18°C° 0.1 mm 4 mps 739 mmHg 95%
    06:00 +18°C° 0.1 mm 4 mps 739 mmHg 94%
    07:00 +18°C° 0.1 mm 4 mps 740 mmHg 94%
    08:00 +18°C° 0.4 mm 4 mps 740 mmHg 94%
    09:00 +18°C° 0.4 mm 4 mps 740 mmHg 94%
    10:00 +18°C° 0.4 mm 4 mps 740 mmHg 93%
    11:00 +19°C° 0.4 mm 4 mps 740 mmHg 92%
    12:00 +19°C° 0.4 mm 4 mps 740 mmHg 91%
    13:00 +20°C° 0.4 mm 4 mps 740 mmHg 90%
    14:00 +20°C° 0.1 mm 4 mps 740 mmHg 87%
    15:00 +21°C° 0.1 mm 3 mps 740 mmHg 85%
    16:00 +22°C° 0.1 mm 3 mps 740 mmHg 82%
    17:00 +21°C° 0.2 mm 3 mps 740 mmHg 84%
    18:00 +21°C° 0.2 mm 3 mps 740 mmHg 86%
    19:00 +21°C° 0.2 mm 3 mps 740 mmHg 89%
    20:00 +20°C° 0.1 mm 3 mps 740 mmHg 91%
    21:00 +19°C° 0.1 mm 3 mps 740 mmHg 94%
    22:00 +18°C° 0.1 mm 3 mps 740 mmHg 97%
    23:00 +18°C° 0.1 mm 3 mps 741 mmHg 97%

    20 July, Friday

    Time Temperature Precipitation Wind Pressure Humidity
    00:00 +18°C° 0.1 mm 3 mps 741 mmHg 97%
    01:00 +18°C° 0.1 mm 3 mps 741 mmHg 97%
    02:00 +18°C° 0.2 mm 3 mps 741 mmHg 97%
    03:00 +18°C° 0.2 mm 3 mps 740 mmHg 97%
    04:00 +18°C° 0.2 mm 3 mps 740 mmHg 96%
    05:00 +18°C° 0.3 mm 3 mps 740 mmHg 95%
    06:00 +18°C° 0.3 mm 3 mps 741 mmHg 93%
    07:00 +18°C° 0.3 mm 3 mps 741 mmHg 92%
    08:00 +20°C° 0.1 mm 3 mps 741 mmHg 84%
    09:00 +21°C° 0.1 mm 3 mps 741 mmHg 77%
    10:00 +22°C° 0.1 mm 3 mps 741 mmHg 70%
    11:00 +23°C° 0 mm 4 mps 741 mmHg 66%
    12:00 +25°C° 0 mm 4 mps 741 mmHg 61%
    13:00 +26°C° 0 mm 4 mps 740 mmHg 57%
    14:00 +26°C° 0 mm 4 mps 740 mmHg 56%
    15:00 +26°C° 0 mm 4 mps 740 mmHg 55%
    16:00 +26°C° 0 mm 4 mps 740 mmHg 54%
    17:00 +25°C° 0 mm 3 mps 740 mmHg 59%
    18:00 +24°C° 0 mm 2 mps 739 mmHg 63%
    19:00 +23°C° 0 mm 2 mps 739 mmHg 68%
    20:00 +22°C° 0 mm 1 mps 739 mmHg 69%
    21:00 +20°C° 0 mm 1 mps 740 mmHg 71%
    22:00 +19°C° 0 mm 1 mps 740 mmHg 72%
    23:00 +19°C° 0 mm 1 mps 740 mmHg 74%

    21 July, Saturday

    Time Temperature Precipitation Wind Pressure Humidity
    00:00 +18°C° 0 mm 1 mps 740 mmHg 75%
    01:00 +18°C° 0 mm 1 mps 739 mmHg 76%
    02:00 +15°C° 0 mm 0 mps 739 mmHg 78%
    03:00 +15°C° 0 mm 0 mps 739 mmHg 79%
    04:00 +15°C° 0 mm 0 mps 739 mmHg 81%
    05:00 +16°C° 0 mm 0 mps 739 mmHg 77%
    06:00 +18°C° 0 mm 0 mps 739 mmHg 73%
    07:00 +19°C° 0 mm 0 mps 739 mmHg 68%
    08:00 +23°C° 0 mm 1 mps 739 mmHg 62%
    09:00 +24°C° 0 mm 1 mps 739 mmHg 56%
    10:00 +26°C° 0 mm 1 mps 739 mmHg 50%
    11:00 +27°C° 0 mm 1 mps 739 mmHg 48%
    12:00 +27°C° 0 mm 1 mps 738 mmHg 46%
    13:00 +28°C° 0 mm 1 mps 738 mmHg 43%
    14:00 +27°C° 0 mm 1 mps 738 mmHg 45%
    15:00 +27°C° 0 mm 1 mps 738 mmHg 46%
    16:00 +27°C° 0 mm 1 mps 737 mmHg 47%
    17:00 +26°C° 0 mm 1 mps 737 mmHg 53%
    18:00 +25°C° 0 mm 1 mps 737 mmHg 58%
    19:00 +23°C° 0 mm 2 mps 737 mmHg 63%
    20:00 +23°C° 0 mm 2 mps 737 mmHg 65%
    21:00 +21°C° 0 mm 2 mps 736 mmHg 67%
    22:00 +20°C° 0 mm 2 mps 736 mmHg 70%
    23:00 +20°C° 0 mm 2 mps 736 mmHg 70%
    Show more